LZ3SV-3 Weather Reports


Display with metric or nautical units.
time (UTC)temp
F
wind
direction
speed
MPH
gust
MPH
rain 1hr
in
rain 24hr
in
rain mn
in
humidity
%
barometer
mb
20260507110136 85 0.0 0.0 0.00 0.00 0.00 35 990.8
20260507104136 83 0.0 0.0 0.00 0.00 0.00 39 991.0
20260507103136 81 0.0 0.0 0.00 0.00 0.00 41 990.9
20260507101136 78 0.0 0.0 0.00 0.00 0.00 44 991.2
20260507100136 77 0.0 0.0 0.00 0.00 0.00 45 991.2
20260507094137 75 0.0 0.0 0.00 0.00 0.00 47 991.4
20260507093136 74 0.0 0.0 0.00 0.00 0.00 48 991.5
20260507092136 72 0.0 0.0 0.00 0.00 0.00 50 991.6
20260507091136 70 0.0 0.0 0.00 0.00 0.00 52 991.6
20260507085136 70 0.0 0.0 0.00 0.00 0.00 52 991.8
20260507083136 68 0.0 0.0 0.00 0.00 0.00 56 991.8
20260507082136 67 0.0 0.0 0.00 0.00 0.00 58 991.9
20260507081135 66 0.0 0.0 0.00 0.00 0.00 56 992.0
20260507080136 65 0.0 0.0 0.00 0.00 0.00 56 991.9
20260507075136 65 0.0 0.0 0.00 0.00 0.00 57 992.1
20260507074136 64 0.0 0.0 0.00 0.00 0.00 58 992.0
20260507073135 64 0.0 0.0 0.00 0.00 0.00 60 991.9
20260507072135 62 0.0 0.0 0.00 0.00 0.00 62 992.0
20260507071135 62 0.0 0.0 0.00 0.00 0.00 64 991.9
20260507070136 61 0.0 0.0 0.00 0.00 0.00 67 992.0
20260507065135 60 0.0 0.0 0.00 0.00 0.00 71 992.1
20260507064135 59 0.0 0.0 0.00 0.00 0.00 74 992.1
20260507063136 59 0.0 0.0 0.00 0.00 0.00 76 992.2
20260507061135 58 0.0 0.0 0.00 0.00 0.00 75 992.1
20260507060135 57 0.0 0.0 0.00 0.00 0.00 76 992.3
20260507055135 56 0.0 0.0 0.00 0.00 0.00 78 992.1
20260507054135 55 0.0 0.0 0.00 0.00 0.00 80 992.1
20260507053135 54 0.0 0.0 0.00 0.00 0.00 84 992.0
20260507052135 54 0.0 0.0 0.00 0.00 0.00 84 992.0
20260507051135 53 0.0 0.0 0.00 0.00 0.00 86 992.0
20260507050135 52 0.0 0.0 0.00 0.00 0.00 89 991.8
20260507045135 52 0.0 0.0 0.00 0.00 0.00 88 991.8
20260507044136 51 0.0 0.0 0.00 0.00 0.00 91 991.7
20260507043135 51 0.0 0.0 0.00 0.00 0.00 94 991.6
20260507042136 50 0.0 0.0 0.00 0.00 0.00 95 991.6
20260507041135 50 0.0 0.0 0.00 0.00 0.00 99 991.4
20260507040135 49 0.0 0.0 0.00 0.00 0.00 99 991.4
20260507035135 49 0.0 0.0 0.00 0.00 0.00 99 991.1
20260507033135 49 0.0 0.0 0.00 0.00 0.00 98 991.2
20260507032135 49 0.0 0.0 0.00 0.00 0.00 98 990.9
20260507031136 49 0.0 0.0 0.00 0.00 0.00 98 990.9
20260507030135 49 0.0 0.0 0.00 0.00 0.00 98 991.0
20260507025135 49 0.0 0.0 0.00 0.00 0.00 98 990.8
20260507024135 50 0.0 0.0 0.00 0.00 0.00 97 990.7
20260507023135 50 0.0 0.0 0.00 0.00 0.00 95 990.6
20260507021135 50 0.0 0.0 0.00 0.00 0.00 96 990.5
20260507020135 50 0.0 0.0 0.00 0.00 0.00 98 990.6
20260507015135 50 0.0 0.0 0.00 0.00 0.00 96 990.4
20260507014134 50 0.0 0.0 0.00 0.00 0.00 95 990.6
20260507013135 50 0.0 0.0 0.00 0.00 0.00 94 990.5
20260507012134 50 0.0 0.0 0.00 0.00 0.00 95 990.4
20260507011134 51 0.0 0.0 0.00 0.00 0.00 93 990.2
20260507010135 51 0.0 0.0 0.00 0.00 0.00 91 990.4
20260507005134 51 0.0 0.0 0.00 0.00 0.00 90 990.5
20260507003135 51 0.0 0.0 0.00 0.00 0.00 89 990.1
20260507002135 52 0.0 0.0 0.00 0.00 0.00 88 990.0
20260507001135 52 0.0 0.0 0.00 0.00 0.00 88 989.9
20260507000135 52 0.0 0.0 0.00 0.00 0.00 86 989.9
20260506234135 53 0.0 0.0 0.00 0.00 0.00 86 989.9
20260506233134 53 0.0 0.0 0.00 0.00 0.00 86 989.8
20260506232134 53 0.0 0.0 0.00 0.00 0.00 87 989.8
20260506231135 53 0.0 0.0 0.00 0.00 0.00 87 989.7
20260506230135 55 0.0 0.0 0.00 0.00 0.00 81 989.7
20260506225135 55 0.0 0.0 0.00 0.00 0.00 80 989.7
20260506224135 55 0.0 0.0 0.00 0.00 0.00 79 989.6
20260506223135 56 0.0 0.0 0.00 0.00 0.00 79 989.6
20260506222134 56 0.0 0.0 0.00 0.00 0.00 76 989.7
20260506221135 57 0.0 0.0 0.00 0.00 0.00 76 989.6
20260506220140 58 0.0 0.0 0.00 0.00 0.00 73 989.8
20260506215135 59 0.0 0.0 0.00 0.00 0.00 68 989.8
20260506213135 61 0.0 0.0 0.00 0.00 0.00 63 989.6
20260506212135 61 0.0 0.0 0.00 0.00 0.00 63 989.5
20260506211135 61 0.0 0.0 0.00 0.00 0.00 63 989.5
20260506210134 62 0.0 0.0 0.00 0.00 0.00 63 989.5
20260506204135 62 0.0 0.0 0.00 0.00 0.00 62 989.5
20260506203135 63 0.0 0.0 0.00 0.00 0.00 60 989.4
20260506202136 64 0.0 0.0 0.00 0.00 0.00 56 989.3
20260506201135 64 0.0 0.0 0.00 0.00 0.00 55 989.3
20260506200135 65 0.0 0.0 0.00 0.00 0.00 53 989.3
20260506194134 66 0.0 0.0 0.00 0.00 0.00 51 989.1
20260506193133 66 0.0 0.0 0.00 0.00 0.00 51 989.1
20260506192132 67 0.0 0.0 0.00 0.00 0.00 50 988.9
20260506191133 67 0.0 0.0 0.00 0.00 0.00 50 988.8
20260506190133 68 0.0 0.0 0.00 0.00 0.00 49 988.7
20260506185133 68 0.0 0.0 0.00 0.00 0.00 48 988.7
20260506184136 69 0.0 0.0 0.00 0.00 0.00 48 988.5
20260506183130 69 0.0 0.0 0.00 0.00 0.00 47 988.5
20260506182131 69 0.0 0.0 0.00 0.00 0.00 47 988.3
20260506180131 71 0.0 0.0 0.00 0.00 0.00 45 988.1
20260506175130 71 0.0 0.0 0.00 0.00 0.00 44 987.9
20260506174131 72 0.0 0.0 0.00 0.00 0.00 44 988.0
20260506173131 73 0.0 0.0 0.00 0.00 0.00 41 987.8
20260506171131 76 0.0 0.0 0.00 0.00 0.00 37 987.8
20260506165131 81 0.0 0.0 0.00 0.00 0.00 32 987.7
20260506164131 82 0.0 0.0 0.00 0.00 0.00 32 987.7
20260506163130 85 0.0 0.0 0.00 0.00 0.00 28 987.7
20260506161130 90 0.0 0.0 0.00 0.00 0.00 26 987.6
20260506160131 92 0.0 0.0 0.00 0.00 0.00 24 987.5
20260506155131 93 0.0 0.0 0.00 0.00 0.00 23 987.7
20260506154131 94 0.0 0.0 0.00 0.00 0.00 23 987.7
20260506153130 94 0.0 0.0 0.00 0.00 0.00 22 987.7
20260506152130 94 0.0 0.0 0.00 0.00 0.00 22 987.9
20260506151131 94 0.0 0.0 0.00 0.00 0.00 21 987.8
20260506150131 96 0.0 0.0 0.00 0.00 0.00 21 987.9
20260506145131 96 0.0 0.0 0.00 0.00 0.00 21 988.0
20260506144130 94 0.0 0.0 0.00 0.00 0.00 22 988.0
20260506143130 96 0.0 0.0 0.00 0.00 0.00 20 987.9
20260506141130 93 0.0 0.0 0.00 0.00 0.00 21 988.0
20260506140130 96 0.0 0.0 0.00 0.00 0.00 21 988.1
20260506135130 94 0.0 0.0 0.00 0.00 0.00 21 988.0
20260506134130 96 0.0 0.0 0.00 0.00 0.00 20 988.2
20260506133130 90 0.0 0.0 0.00 0.00 0.00 21 988.1
20260506132131 94 0.0 0.0 0.00 0.00 0.00 20 988.3
20260506131130 93 0.0 0.0 0.00 0.00 0.00 21 988.2
20260506124130 90 0.0 0.0 0.00 0.00 0.00 25 988.5
20260506123131 92 0.0 0.0 0.00 0.00 0.00 24 988.6
20260506121130 90 0.0 0.0 0.00 0.00 0.00 24 988.7
20260506120132 89 0.0 0.0 0.00 0.00 0.00 27 988.9
20260506115131 86 0.0 0.0 0.00 0.00 0.00 28 989.2
20260506114130 85 0.0 0.0 0.00 0.00 0.00 27 989.2